Rechercher aéroport 
image banner adimage banner adimage banner ad
image banner ad

SVLK - La Vieja

Situé à Anzoategui, Venezuela

ICAO - SVLK, IATA -

Données fournies par Airmate  

Information générale

Coordonnées: N9°41'0" W64°11'0"
Élévation : 296 feet MSL.
 
Voir autres Aéroports à Apure

Données opérationnelles

Special qualification required
Heure actuelle UTC:
Heure actuelle locale:
METAR: SVBC 131102Z AUTO NIL
TAF: TAF SVBC 122200Z 1300/1400 14005KT 9000 SCT016 TX29/1300Z TN23/1308Z PORB30 TEMPO 1300/1304 11004KT 9000 SCT013 BKN300
Voir NOTAMs / SUP AIP / TFR affectant cet aéroport [VIEW]
Fréquences de communication: [VIEW]

Pistes:

Identifiant RWYQFULongueur (ft)Largeur (ft)SurfaceLDA (ft)
1000
2800

Coordonnées de l'aéroport

Adresse: Anzoategui Venezuela

Vue satellite de SVLK